EW3453 Weather Reports


Display with metric or nautical units.
time (UTC)temp
F
wind
direction
speed
MPH
gust
MPH
rain 1hr
in
rain 24hr
in
rain mn
in
humidity
%
barometer
mb
20260507114521 43 50 0.0 3.0 0.00 0.22 0.00 73 1013.2
20260507113026 41 37 0.0 1.0 0.00 0.22 0.00 80 1013.2
20260507111519 38 35 0.0 0.0 0.00 0.22 0.00 86 1013.1
20260507110017 37 35 0.0 0.0 0.00 0.22 0.00 86 1012.9
20260507104516 37 35 0.0 0.0 0.00 0.24 0.00 86 1012.7
20260507103015 36 35 0.0 0.0 0.00 0.24 0.00 86 1012.7
20260507101517 36 35 0.0 0.0 0.00 0.24 0.00 86 1012.6
20260507100013 36 35 0.0 0.0 0.00 0.24 0.00 84 1012.6
20260507094511 37 35 0.0 0.0 0.00 0.25 0.00 83 1012.6
20260507093010 38 35 0.0 0.0 0.00 0.25 0.00 82 1012.4
20260507091505 38 34 0.0 0.0 0.00 0.25 0.00 81 1012.5
20260507090002 39 34 0.0 0.0 0.00 0.25 0.00 78 1012.4
20260507084557 41 34 0.0 0.0 0.00 0.25 0.00 76 1012.3
20260507083054 42 34 0.0 0.0 0.00 0.25 0.00 72 1012.4
20260507081551 43 34 0.0 0.0 0.00 0.25 0.00 68 1012.4
20260507080048 44 34 0.0 0.0 0.00 0.25 0.00 66 1012.4
20260507074553 45 34 0.0 0.0 0.00 0.25 0.00 65 1012.4
20260507073044 45 34 0.0 2.0 0.00 0.25 0.00 65 1012.4
20260507071542 45 83 0.0 2.0 0.00 0.25 0.00 63 1012.4
20260507070047 45 309 0.0 0.0 0.00 0.25 0.00 64 1012.1
20260507064643 45 63 0.0 4.0 0.00 0.25 0.00 63 1012.3
20260507063038 45 49 1.0 3.0 0.00 0.25 0.00 62 1012.3
20260507061537 46 320 0.0 2.0 0.00 0.25 0.00 63 1012.5
20260507060040 46 89 0.0 1.0 0.00 0.25 0.00 62 1012.6
20260507054536 46 45 0.0 3.0 0.00 0.25 0.00 62 1012.6
20260507053032 46 56 0.0 2.0 0.00 0.25 0.00 62 1012.5
20260507051530 46 37 0.0 2.0 0.00 0.25 0.00 62 1012.7
20260507050035 47 48 0.0 2.0 0.00 0.25 0.00 63 1012.6
20260507044526 47 47 0.0 2.0 0.00 0.25 0.00 62 1012.7
20260507043024 47 88 0.0 2.0 0.00 0.25 0.00 63 1012.6
20260507041537 48 31 0.0 1.0 0.00 0.25 0.00 66 1012.4
20260507040017 48 38 0.0 2.0 0.00 0.25 0.00 67 1012.2
20260507034517 48 51 0.0 1.0 0.00 0.25 0.25 67 1012.4
20260507033015 48 50 0.0 1.0 0.00 0.25 0.25 66 1012.3
20260507031512 48 50 0.0 3.0 0.00 0.25 0.25 66 1012.1
20260507030010 49 67 0.0 4.0 0.00 0.25 0.25 68 1011.9
20260507024507 49 31 1.0 6.0 0.00 0.25 0.25 70 1011.7
20260507023005 50 63 1.0 5.0 0.00 0.25 0.25 76 1011.8
20260507021502 50 51 2.0 5.0 0.00 0.25 0.25 76 1011.4
20260507020100 50 51 1.0 5.0 0.00 0.25 0.25 80 1011.4
20260507014607 50 51 0.0 1.0 0.00 0.25 0.25 81 1011.7
20260507013113 50 51 0.0 2.0 0.00 0.25 0.25 81 1011.7
20260507011556 51 51 0.0 1.0 0.00 0.25 0.25 81 1011.6
20260507010054 51 51 0.0 1.0 0.00 0.25 0.25 80 1011.7
20260507004553 51 74 0.0 2.0 0.00 0.25 0.25 80 1011.6
20260507003051 51 49 0.0 4.0 0.00 0.25 0.25 79 1011.4
20260507001607 51 82 0.0 4.0 0.00 0.25 0.25 81 1010.9
20260507000048 51 51 0.0 3.0 0.00 0.25 0.25 82 1010.8
20260506234543 51 20 0.0 3.0 0.00 0.25 0.25 82 1010.5
20260506233045 51 48 0.0 3.0 0.00 0.25 0.25 82 1010.1
20260506231544 52 36 0.0 2.0 0.00 0.25 0.25 83 1010.0
20260506230037 52 352 0.0 4.0 0.00 0.25 0.25 82 1009.8
20260506224536 52 37 2.0 5.0 0.00 0.25 0.25 82 1010.0
20260506223033 53 55 2.0 4.0 0.00 0.25 0.25 82 1009.7
20260506221530 53 60 2.0 6.0 0.00 0.25 0.25 82 1009.2
20260506220028 53 56 1.0 5.0 0.00 0.25 0.25 81 1009.2
20260506214524 54 52 1.0 12.0 0.00 0.25 0.25 82 1009.1
20260506213022 55 61 1.0 8.0 0.00 0.25 0.25 82 1008.8
20260506211517 56 264 2.0 6.0 0.00 0.25 0.25 82 1008.4
20260506210016 56 55 2.0 5.0 0.00 0.25 0.25 82 1008.0
20260506204516 57 39 1.0 5.0 0.00 0.25 0.25 82 1007.9
20260506203011 57 52 2.0 4.0 0.00 0.25 0.25 83 1007.7
20260506201510 57 76 1.0 7.0 0.00 0.25 0.25 84 1007.6
20260506200008 57 60 1.0 8.0 0.00 0.25 0.25 85 1007.5
20260506194511 57 90 1.0 5.0 0.00 0.25 0.25 87 1007.2
20260506193007 57 68 1.0 4.0 0.00 0.25 0.25 87 1007.0
20260506191507 59 53 3.0 9.0 0.00 0.25 0.25 86 1006.8
20260506190006 60 278 4.0 9.0 0.00 0.25 0.25 86 1006.5
20260506184505 61 80 1.0 3.0 0.00 0.25 0.25 92 1006.4
20260506183006 58 243 0.0 2.0 0.02 0.25 0.25 94 1006.6
20260506181504 57 199 0.0 1.0 0.02 0.25 0.25 94 1006.5
20260506180005 57 54 0.0 2.0 0.03 0.25 0.25 93 1006.5
20260506174502 58 239 1.0 4.0 0.04 0.25 0.25 94 1006.4
20260506173003 58 83 0.0 2.0 0.02 0.23 0.23 94 1006.3
20260506171502 58 290 0.0 3.0 0.02 0.23 0.23 94 1006.2
20260506164601 58 66 0.0 1.0 0.01 0.21 0.21 94 1005.8
20260506163107 58 108 0.0 3.0 0.01 0.21 0.21 94 1005.9
20260506161600 58 129 0.0 3.0 0.02 0.21 0.21 94 1006.1
20260506160108 58 33 0.0 1.0 0.02 0.21 0.21 95 1006.0
20260506154557 57 300 0.0 0.0 0.01 0.20 0.20 94 1006.0
20260506153056 56 301 0.0 0.0 0.01 0.20 0.20 94 1006.0
20260506151556 56 301 0.0 0.0 0.00 0.19 0.19 94 1005.9
20260506150056 56 301 0.0 0.0 0.00 0.19 0.19 94 1005.8
20260506144554 56 301 0.0 1.0 0.01 0.19 0.19 94 1005.6
20260506143053 55 62 0.0 1.0 0.02 0.19 0.19 94 1005.7
20260506141552 55 264 0.0 4.0 0.03 0.19 0.19 94 1005.6
20260506140051 55 146 0.0 0.0 0.03 0.19 0.19 94 1005.6
20260506134615 55 200 0.0 0.0 0.02 0.18 0.18 94 1005.5
20260506133049 55 200 0.0 0.0 0.02 0.17 0.17 94 1005.6
20260506131606 55 199 0.0 0.0 0.02 0.16 0.16 94 1005.8
20260506130048 55 199 0.0 0.0 0.04 0.16 0.16 94 1005.8
20260506124547 55 199 0.0 0.0 0.07 0.16 0.16 93 1005.7
20260506123048 55 200 0.0 0.0 0.09 0.15 0.15 94 1005.7
20260506121546 55 200 0.0 0.0 0.10 0.14 0.14 93 1005.7
20260506120044 55 200 0.0 0.0 0.09 0.12 0.12 93 1006.1